When you browse on this site, cookies collect data to enhance your experience and personalize the content and advertising you see.
Visit our Privacy Policy to learn more. By continuing to use the site, you agree to this use of cookies and data.
  • In Hungary
  • List of Countries
  • For 7 days
  • Water Temperature
  • Weather Map
  • News
  • Weather Widgets
  • user-avatar
    Login

    Hourly Weather Poplawy

    Today, 23 September, Monday

    Time Temperature Precipitation Wind Pressure Humidity
    00:00 +12°C° 0 mm 2 mps 746 mmHg 85%
    01:00 +10°C° 0 mm 3 mps 746 mmHg 89%
    02:00 +10°C° 0 mm 3 mps 747 mmHg 94%
    03:00 +9°C° 0 mm 3 mps 747 mmHg 92%
    04:00 +8°C° 0 mm 4 mps 747 mmHg 90%
    05:00 +7°C° 0 mm 4 mps 747 mmHg 89%
    06:00 +8°C° 0 mm 5 mps 747 mmHg 84%
    07:00 +8°C° 0 mm 5 mps 748 mmHg 80%
    08:00 +8°C° 0 mm 5 mps 748 mmHg 75%
    09:00 +9°C° 0 mm 5 mps 748 mmHg 72%
    10:00 +9°C° 0 mm 5 mps 748 mmHg 69%
    11:00 +10°C° 0 mm 5 mps 749 mmHg 66%
    12:00 +12°C° 0 mm 5 mps 748 mmHg 64%
    13:00 +13°C° 0 mm 5 mps 748 mmHg 62%
    14:00 +13°C° 0 mm 5 mps 748 mmHg 59%
    15:00 +13°C° 0 mm 5 mps 748 mmHg 59%
    16:00 +13°C° 0 mm 4 mps 748 mmHg 58%
    17:00 +13°C° 0 mm 4 mps 748 mmHg 58%
    18:00 +11°C° 0 mm 4 mps 748 mmHg 61%
    19:00 +10°C° 0 mm 4 mps 748 mmHg 64%
    20:00 +7°C° 0 mm 4 mps 748 mmHg 67%
    21:00 +7°C° 0 mm 4 mps 749 mmHg 67%
    22:00 +7°C° 0 mm 3 mps 749 mmHg 66%
    23:00 +5°C° 0 mm 3 mps 749 mmHg 65%

    Tomorrow, 24 September, Tuesday

    Time Temperature Precipitation Wind Pressure Humidity
    00:00 +5°C° 0 mm 3 mps 749 mmHg 65%
    01:00 +5°C° 0 mm 3 mps 749 mmHg 65%
    02:00 +4°C° 0 mm 3 mps 749 mmHg 66%
    03:00 +4°C° 0 mm 3 mps 749 mmHg 66%
    04:00 +3°C° 0 mm 3 mps 748 mmHg 67%
    05:00 +3°C° 0 mm 3 mps 748 mmHg 68%
    06:00 +4°C° 0 mm 3 mps 748 mmHg 65%
    07:00 +5°C° 0 mm 3 mps 748 mmHg 63%
    08:00 +5°C° 0 mm 4 mps 748 mmHg 60%
    09:00 +8°C° 0 mm 3 mps 748 mmHg 57%
    10:00 +10°C° 0 mm 3 mps 748 mmHg 55%
    11:00 +12°C° 0 mm 3 mps 748 mmHg 52%
    12:00 +14°C° 0 mm 3 mps 747 mmHg 51%
    13:00 +16°C° 0 mm 3 mps 747 mmHg 49%
    14:00 +17°C° 0 mm 3 mps 747 mmHg 48%
    15:00 +16°C° 0 mm 2 mps 746 mmHg 50%
    16:00 +16°C° 0 mm 2 mps 746 mmHg 51%
    17:00 +16°C° 0 mm 2 mps 746 mmHg 52%
    18:00 +14°C° 0 mm 2 mps 746 mmHg 58%
    19:00 +13°C° 0 mm 2 mps 746 mmHg 64%
    20:00 +10°C° 0 mm 3 mps 746 mmHg 70%
    21:00 +9°C° 0 mm 3 mps 746 mmHg 72%
    22:00 +9°C° 0 mm 3 mps 746 mmHg 74%
    23:00 +8°C° 0 mm 3 mps 746 mmHg 75%

    Day after tomorrow, 25 September, Wednesday

    Time Temperature Precipitation Wind Pressure Humidity
    00:00 +8°C° 0 mm 3 mps 745 mmHg 76%
    01:00 +8°C° 0 mm 3 mps 745 mmHg 76%
    02:00 +8°C° 0 mm 3 mps 745 mmHg 76%
    03:00 +7°C° 0 mm 3 mps 744 mmHg 75%
    04:00 +7°C° 0 mm 3 mps 744 mmHg 75%
    05:00 +7°C° 0 mm 3 mps 744 mmHg 74%
    06:00 +8°C° 0 mm 3 mps 744 mmHg 72%
    07:00 +8°C° 0 mm 3 mps 743 mmHg 70%
    08:00 +8°C° 0 mm 4 mps 743 mmHg 68%
    09:00 +11°C° 0 mm 4 mps 743 mmHg 65%
    10:00 +12°C° 0 mm 4 mps 743 mmHg 62%
    11:00 +14°C° 0 mm 4 mps 743 mmHg 60%
    12:00 +15°C° 0 mm 4 mps 743 mmHg 58%
    13:00 +17°C° 0 mm 4 mps 742 mmHg 57%
    14:00 +18°C° 0 mm 4 mps 742 mmHg 56%
    15:00 +18°C° 0 mm 4 mps 742 mmHg 58%
    16:00 +18°C° 0 mm 3 mps 742 mmHg 61%
    17:00 +18°C° 0 mm 3 mps 741 mmHg 64%
    18:00 +17°C° 0.1 mm 3 mps 741 mmHg 69%
    19:00 +16°C° 0.1 mm 3 mps 741 mmHg 73%
    20:00 +14°C° 0.1 mm 3 mps 741 mmHg 78%
    21:00 +14°C° 0.1 mm 3 mps 741 mmHg 80%
    22:00 +14°C° 0.1 mm 3 mps 741 mmHg 83%
    23:00 +13°C° 0.1 mm 3 mps 741 mmHg 85%

    26 September, Thursday

    Time Temperature Precipitation Wind Pressure Humidity
    00:00 +14°C° 0.1 mm 2 mps 741 mmHg 88%
    01:00 +13°C° 0.1 mm 2 mps 741 mmHg 91%
    02:00 +13°C° 0.1 mm 2 mps 741 mmHg 93%
    03:00 +12°C° 0.1 mm 2 mps 741 mmHg 94%
    04:00 +12°C° 0.1 mm 2 mps 741 mmHg 95%
    05:00 +12°C° 0.1 mm 2 mps 741 mmHg 96%
    06:00 +12°C° 0 mm 2 mps 741 mmHg 94%
    07:00 +13°C° 0 mm 2 mps 741 mmHg 93%
    08:00 +13°C° 0 mm 2 mps 741 mmHg 91%
    09:00 +15°C° 0 mm 2 mps 742 mmHg 85%
    10:00 +16°C° 0 mm 3 mps 742 mmHg 79%
    11:00 +17°C° 0 mm 3 mps 743 mmHg 74%
    12:00 +18°C° 0.5 mm 3 mps 743 mmHg 72%
    13:00 +18°C° 0.5 mm 4 mps 743 mmHg 71%
    14:00 +19°C° 0.5 mm 4 mps 743 mmHg 69%
    15:00 +18°C° 0.5 mm 4 mps 743 mmHg 72%
    16:00 +18°C° 0.5 mm 3 mps 743 mmHg 75%
    17:00 +17°C° 0.5 mm 3 mps 743 mmHg 78%
    18:00 +16°C° 0.4 mm 3 mps 743 mmHg 82%
    19:00 +15°C° 0.4 mm 2 mps 744 mmHg 86%
    20:00 +14°C° 0.4 mm 2 mps 744 mmHg 89%
    21:00 +13°C° 0 mm 1 mps 744 mmHg 90%
    22:00 +13°C° 0 mm 1 mps 745 mmHg 91%
    23:00 +12°C° 0 mm 1 mps 745 mmHg 92%

    27 September, Friday

    Time Temperature Precipitation Wind Pressure Humidity
    00:00 +12°C° 0 mm 1 mps 745 mmHg 92%
    01:00 +12°C° 0 mm 1 mps 745 mmHg 93%
    02:00 +12°C° 0 mm 1 mps 746 mmHg 93%
    03:00 +11°C° 0 mm 1 mps 746 mmHg 94%
    04:00 +11°C° 0 mm 1 mps 746 mmHg 94%
    05:00 +11°C° 0 mm 1 mps 746 mmHg 94%
    06:00 +11°C° 0 mm 1 mps 746 mmHg 92%
    07:00 +12°C° 0 mm 1 mps 746 mmHg 90%
    08:00 +13°C° 0 mm 1 mps 746 mmHg 89%
    09:00 +14°C° 0 mm 1 mps 746 mmHg 82%
    10:00 +16°C° 0 mm 1 mps 747 mmHg 75%
    11:00 +19°C° 0 mm 1 mps 747 mmHg 69%
    12:00 +18°C° 0.2 mm 2 mps 747 mmHg 67%
    13:00 +19°C° 0.2 mm 2 mps 747 mmHg 65%
    14:00 +19°C° 0.2 mm 2 mps 746 mmHg 63%
    15:00 +19°C° 0.1 mm 2 mps 746 mmHg 65%
    16:00 +19°C° 0.1 mm 2 mps 746 mmHg 66%
    17:00 +18°C° 0.1 mm 2 mps 746 mmHg 68%
    18:00 +17°C° 0 mm 2 mps 746 mmHg 72%
    19:00 +16°C° 0 mm 2 mps 746 mmHg 76%
    20:00 +15°C° 0 mm 2 mps 746 mmHg 79%
    21:00 +15°C° 0 mm 2 mps 746 mmHg 80%
    22:00 +14°C° 0 mm 2 mps 746 mmHg 81%
    23:00 +13°C° 0 mm 3 mps 746 mmHg 81%

    28 September, Saturday

    Time Temperature Precipitation Wind Pressure Humidity
    00:00 +13°C° 0 mm 3 mps 746 mmHg 83%
    01:00 +13°C° 0 mm 3 mps 746 mmHg 84%
    02:00 +13°C° 0 mm 3 mps 746 mmHg 85%
    03:00 +12°C° 0 mm 3 mps 745 mmHg 86%
    04:00 +12°C° 0 mm 3 mps 745 mmHg 86%
    05:00 +12°C° 0 mm 3 mps 745 mmHg 87%
    06:00 +13°C° 0 mm 4 mps 745 mmHg 85%
    07:00 +13°C° 0 mm 4 mps 745 mmHg 83%
    08:00 +14°C° 0 mm 4 mps 744 mmHg 80%
    09:00 +15°C° 0.1 mm 4 mps 745 mmHg 79%
    10:00 +16°C° 0.1 mm 3 mps 745 mmHg 79%
    11:00 +17°C° 0.1 mm 3 mps 745 mmHg 78%
    12:00 +17°C° 0.1 mm 4 mps 745 mmHg 78%
    13:00 +17°C° 0.1 mm 4 mps 744 mmHg 78%
    14:00 +16°C° 0.1 mm 5 mps 744 mmHg 78%
    15:00 +16°C° 0 mm 5 mps 744 mmHg 77%
    16:00 +17°C° 0 mm 5 mps 744 mmHg 75%
    17:00 +18°C° 0 mm 4 mps 743 mmHg 74%
    18:00 +17°C° 0.1 mm 4 mps 743 mmHg 78%
    19:00 +16°C° 0.1 mm 3 mps 743 mmHg 82%
    20:00 +14°C° 0.1 mm 3 mps 744 mmHg 86%
    21:00 +14°C° 0.2 mm 3 mps 744 mmHg 86%
    22:00 +14°C° 0.2 mm 3 mps 744 mmHg 86%
    23:00 +14°C° 0.2 mm 3 mps 744 mmHg 86%
    Show more